Location: Namasale
(1.5000°N, 32.6167°E)
Time: 12:29:16
(UTC+00:00)

deb Explorer IX - Pass Details

Date: 21 April 2021
Orbit: 541 x 1098 km, 38.8° (Epoch: 05 May)

Event Time Altitude Azimuth Distance (km) Brightness Sun altitude
Exits shadow 02:04:27 10° 352° (N) 1,762 ? -25.0°
Drops below altitude 10° 02:04:35 10° 353° (N) 1,788 ? -25.0°
Sets 02:07:43 0° 20° (NNE) 2,680 ? -24.2°
